Location: Pabrico
(37.5827°N, 122.0063°W)
Time: 02:17:23
(UTC+00:00)

SL-16 R/B - Visible Passes

Search period start: 19 July 2024 00:00
Search period end: 29 July 2024 00:00
Orbit: 984 x 1007 km, 99.7° (Epoch: 18 July)

Date Brightness Start Highest point End Pass type
(mag) Time Alt. Az. Time Alt. Az. Time Alt. Az.
19 Jul 3.3 10:24:31 10° SE 10:30:27 50° ENE 10:36:22 10° N visible
19 Jul 3.6 12:09:27 10° SW 12:14:13 23° W 12:19:01 10° NW visible
20 Jul 5.1 09:15:39 10° E 09:18:26 13° ENE 09:21:12 10° NNE visible
20 Jul 2.5 10:55:32 13° SSE 11:01:06 88° ENE 11:07:17 10° NNW visible
21 Jul 4.5 09:44:00 10° ESE 09:48:43 24° ENE 09:53:26 10° NNE visible
21 Jul 2.7 11:26:47 15° S 11:31:52 53° W 11:37:53 10° NNW visible
22 Jul 3.7 10:13:29 10° SE 10:19:10 41° ENE 10:24:52 10° N visible
22 Jul 3.4 11:58:03 12° SSW 12:02:46 29° W 12:08:02 10° NW visible
23 Jul 5.3 09:06:14 10° ENE 09:07:17 10° NE 09:08:21 10° NE visible
23 Jul 2.7 10:44:14 13° SSE 10:49:45 72° ENE 10:55:54 10° N visible
23 Jul 4.0 12:30:18 10° SW 12:33:49 16° W 12:37:22 10° WNW visible
24 Jul 4.8 09:33:22 10° ESE 09:37:31 19° ENE 09:41:40 10° NNE visible
24 Jul 2.5 11:15:30 16° S 11:20:29 66° WSW 11:26:37 10° NNW visible
25 Jul 4.0 10:02:32 10° SE 10:07:54 33° ENE 10:13:18 10° N visible
25 Jul 3.1 11:46:46 15° SSW 11:51:20 36° W 11:56:58 10° NNW visible
26 Jul 3.0 10:32:56 12° SSE 10:38:27 58° ENE 10:44:28 10° N visible
26 Jul 3.8 12:18:02 10° SW 12:22:20 20° W 12:26:42 10° NW visible
27 Jul 5.0 09:22:57 10° E 09:26:21 15° ENE 09:29:44 10° NNE visible
27 Jul 2.4 11:04:13 17° SSE 11:09:06 82° WSW 11:15:19 10° NNW visible
28 Jul 4.3 09:51:41 10° ESE 09:56:40 27° ENE 10:01:40 10° N visible
28 Jul 2.8 11:35:29 17° SSW 11:39:55 45° W 11:45:49 10° NNW visible
